SCP
0 0 0 0 0 0 0 0 0 0 0 0 0 0 0 0 0 0 0 0 0 0 0 0 0 0 0 0 0 0 0 0 0 0 0 0 0 0 0 0 0 0 0
0 0 0 0 0 0 0 0 0 0 0 0 0 0 0 0 0 0 0 0 0 0 0 0 0 0 0 0 0 0 0 0 0 0 0 0 0 0 0 0 0 0 0
0 0 0 0 0 0 0 0 0 0 0 0 0 0 0 0 0 0 0 0 0 0 0 0 0 0 0 0 0 0 0 0 0 0 0 0 0 0 0 0 0 0 0
0 0 0 0 0 0 0 0 0 0 0 0 0 0 0 0 0 0 0 0 0 0 0 0 0 0 0 0 0 0 0 0 0 0 0 0 0 0 0 0 0 0 0
0 0 0 0 0 0 0 0 0 0 0 0 0 0 0 0 0 0 0 0 0 0 0 0 0 0 0 0 0 0 0 0 0 0 0 0 0 0 0 0 0 0 0
0 0 0 0 0 0 0 0 0 0 0 0 0 0 0 0 0 0 0 0 0 0 0 0 0 0 0 0 0 0 0 0 0 0 0 0 0 0 0 0 0 0 0
0 0 0 0 0 0 0 0 0 0 0 0 0 0 0 0 0 0 0 0 0 0 0 0 0 0 0 0 0 0 0 0 0 0 0 0 0 0 0 0 0 0 0
0 0 0 0 0 0 0 0 0 0 0 0 0 0 0 0 0 0 0 0 0 0 0 0 0 0 0 0 0 0 0 0 0 0 0 0 0 0 0 0 0 0 0
0 0 0 0 0 0 0 0 0 0 0 0 0 0 0 0 0 0 0 0 0 0 0 0 0 0 0 0 0 0 0 0 0 0 0 0 0 0 0 0 0 0 0
0 0 0 0 0 0 0 0 0 0 0 0 0 0 0 0 0 0 0 0 0 0 0 0 0 0 0 0 0 0 0 0 0 0 0 0 0 0 0 0 0 0 0
0 0 0 0 0 0 0 0 0 0 0 0 0 0 0 0 0 0 0 0 0 0 0 0 0 0 0 0 0 0 0 0 0 0 0 0 0 0 0 0 0 0 0
0 0 0 0 0 0 0 0 0 0 0 0 0 0 0 0 0 0 0 0 0 0 0 0 0 0 0 0 0 0 0 0 0 0 0 0 0 0 0 0 0 0 0
0 0 0 0 0 0 0 0 0 0 0 0 0 0 0 0 0 0 0 0 0 0 0 0 0 0 0 0 0 0 0 0 0 0 0 0 0 0 0 0 0 0 0
0 0 0 0 0 0 0 0 0 0 0 0 0 0 0 0 0 0 0 0 0 0 0 0 0 0 0 0 0 0 0 0 0 0 0 0 0 0 0 0 0 0 0
0 0 0 0 0 0 0 0 0 0 0 0 0 0 0 0 0 0 0 0 0 0 0 0 0 0 0 0 0 0 0 0 0 0 0 0 0 0 0 0 0 0 0
0 0 0 0 0 0 0 0 0 0 0 0 0 0 0 0 0 0 0 0 0 0 0 0 0 0 0 0 0 0 0 0 0 0 0 0 0 0 0 0 0 0 0
1 1 1 0 0 0 0 0 0 0 0 0 0 0 0 0 0 0 0 0 0 0 0 0 0 0 0 0 0 0 0 0 0 0 0 0 0 0 0 0 0 0 0
1 1 1 1 0 0 0 0 0 0 0 0 0 0 0 0 0 0 0 0 0 0 0 0 0 0 0 0 0 0 0 0 0 0 0 0 0 0 0 0 0 0 0
1 1 1 1 1 1 0 0 0 0 0 0 0 0 0 0 0 0 0 0 0 0 0 0 0 0 0 0 0 0 0 0 0 0 0 0 0 0 0 0 0 0 0
1 1 1 1 1 1 1 0 0 0 0 0 0 1 1 0 0 0 0 0 0 0 0 0 0 0 0 0 0 0 0 0 0 0 0 0 0 0 0 0 0 0 0
1 1 1 1 1 1 1 1 1 1 0 0 0 1 1 0 0 0 0 0 0 0 0 0 0 0 0 0 0 0 0 0 0 0 0 0 0 0 0 0 0 0 0
2 2 1 1 1 1 1 1 1 1 1 1 1 1 1 1 0 0 0 0 0 0 0 0 0 0 0 0 0 0 0 0 0 0 0 0 0 0 0 0 0 0 0
2 2 2 1 1 1 1 1 1 1 1 1 1 1 1 1 1 1 1 0 0 0 0 0 0 0 0 0 0 0 0 0 0 0 0 0 0 0 0 0 0 0 0
2 2 2 2 2 1 1 1 1 1 1 1 1 1 1 1 1 1 1 1 1 0 0 0 0 0 0 0 0 0 0 0 0 0 0 0 0 0 0 0 0 0 0
2 2 2 2 2 2 2 1 1 1 1 1 1 1 1 1 1 1 1 1 1 1 1 1 1 0 0 0 0 0 0 0 0 0 0 0 0 0 0 0 0 0 0
2 2 2 2 2 2 2 1 1 1 1 1 1 1 1 1 1 1 1 1 1 1 1 1 1 1 1 0 0 0 0 0 0 0 0 0 0 0 0 0 0 0 0
Wind_Speed
13 13 14 15 15 15 15 16 15 15 16 17 17 17 17 17 17 17 17 17 17 17 16 15 15 15 15 15 14 14 14 14 15 16 16 15 14 13 12 13 13 12 14
16 15 15 15 15 15 15 15 15 15 15 16 16 16 16 16 16 16 16 16 16 16 15 15 15 14 14 14 13 13 13 13 14 15 16 14 13 12 12 13 15 10 14
17 15 15 15 15 14 14 14 14 14 15 15 15 15 15 15 16 16 16 15 15 15 15 15 14 14 13 13 12 11 11 11 12 12 12 9 11 13 13 15 15 14 13
17 15 15 15 15 14 14 14 14 14 14 14 15 15 15 15 16 16 16 15 15 15 14 14 14 13 13 12 10 9 8 8 8 8 6 8 9 13 14 14 13 13 13
17 16 15 16 15 14 14 13 13 14 14 14 14 14 14 15 15 15 15 15 14 14 14 13 13 13 12 10 8 7 6 5 6 6 7 9 8 12 13 13 12 12 12
18 17 15 15 15 14 13 14 13 13 14 14 14 14 14 14 15 15 14 13 13 13 13 13 12 12 10 9 6 4 3 3 4 6 8 8 7 10 12 12 12 12 11
17 16 15 15 14 14 13 13 13 13 13 14 14 13 13 14 14 14 13 13 12 12 12 12 11 10 9 7 4 2 1 1 3 8 8 8 8 10 11 11 11 11 11
17 16 14 15 14 13 13 13 13 13 13 13 13 13 13 13 13 13 12 12 11 11 11 11 10 9 8 6 3 1 2 2 6 10 10 9 10 10 11 11 10 10 9
17 15 13 12 12 13 13 12 13 13 13 12 12 12 13 13 12 12 11 11 10 10 10 10 9 8 7 5 2 1 2 3 3 6 10 7 10 11 10 10 10 9 9
13 13 13 12 11 11 11 12 12 12 12 11 11 12 12 12 12 12 10 9 9 9 9 8 8 7 5 4 2 2 3 3 3 8 7 8 11 10 10 10 9 9 9
10 9 11 12 10 11 11 11 11 11 10 10 9 11 10 7 8 7 10 9 8 8 7 7 6 6 5 4 4 3 3 1 5 6 6 11 11 10 10 9 9 9 9
10 9 7 9 9 9 9 9 7 7 8 6 6 7 4 3 5 8 10 9 8 7 7 7 7 6 5 3 5 5 2 1 4 6 7 13 11 10 9 9 8 9 8
9 8 8 7 5 7 6 6 4 3 4 4 5 4 3 3 5 6 5 5 5 6 5 6 6 4 3 2 2 3 1 1 3 5 8 11 11 10 9 8 8 8 8
10 9 9 8 4 4 5 4 4 4 3 4 4 3 3 1 2 3 3 4 4 3 2 3 2 2 2 2 1 2 2 2 4 5 6 11 10 10 9 9 8 8 8
10 9 8 8 6 4 3 1 4 3 4 5 4 2 3 2 2 2 1 1 2 2 3 2 2 2 1 1 1 2 2 2 4 6 6 10 10 9 9 9 9 8 8
10 10 9 8 7 5 3 1 2 3 3 4 3 4 2 2 3 2 1 0 0 1 1 1 2 2 1 1 0 1 2 2 3 5 7 7 10 9 9 9 9 9 9
11 10 10 8 8 6 4 3 3 3 3 3 4 4 3 3 3 2 1 1 1 1 2 1 1 2 2 1 1 1 2 2 3 4 6 5 6 9 10 9 9 9 9
11 10 9 9 10 7 4 2 2 2 3 3 3 4 3 3 3 1 1 1 1 1 1 2 1 1 1 1 1 1 1 2 3 4 4 5 5 6 8 11 10 9 9
10 10 8 7 9 8 6 3 2 2 2 2 2 3 4 4 3 2 0 1 0 1 1 1 2 1 1 1 1 2 2 2 3 4 4 5 5 5 6 9 11 10 10
11 10 9 7 8 7 5 3 2 3 3 2 2 3 4 3 3 2 2 1 1 1 1 1 2 1 0 1 2 1 1 2 3 3 4 4 4 6 7 7 6 8 11
11 11 10 9 8 6 5 5 4 4 3 3 3 4 4 3 3 2 1 2 1 1 1 1 1 1 2 1 0 1 1 2 2 2 3 3 5 5 5 6 6 5 6
12 11 10 9 9 7 5 4 3 4 3 3 3 4 5 4 4 4 3 2 2 1 1 2 2 1 2 2 1 1 1 1 1 3 3 3 4 4 5 7 6 6 5
14 13 11 11 10 9 7 5 4 3 2 2 3 3 4 4 4 3 3 3 2 2 2 3 3 3 2 1 1 1 1 1 1 1 3 3 3 3 4 4 6 6 6
14 13 11 10 10 9 8 7 7 6 5 4 3 3 4 4 4 4 4 4 3 3 3 4 4 2 2 2 1 1 2 1 1 1 1 2 4 4 4 4 5 5 5
14 13 12 10 9 9 9 8 7 6 4 3 3 4 4 4 5 5 5 4 4 3 3 3 2 3 2 3 2 2 2 2 3 2 2 2 2 3 3 4 3 4 5
13 12 12 10 10 9 9 9 8 6 5 5 5 4 4 4 4 5 5 4 4 3 4 3 3 4 3 3 2 2 2 2 2 2 2 2 2 2 3 3 3 3 4
Wind_Direction
104 104 103 100 97 95 94 94 92 92 91 91 91 90 91 94 96 97 99 100 101 100 99 97 95 95 94 95 95 96 98 98 98 98 96 94 94 96 99 102 100 93 98
109 108 105 103 99 97 96 95 95 94 95 95 94 93 92 95 100 101 100 100 100 99 99 99 98 96 97 98 98 101 104 106 108 108 105 98 93 93 94 92 93 102 104
111 112 108 104 102 100 99 98 98 98 97 97 97 96 94 97 102 101 102 102 102 101 100 100 99 98 97 97 99 103 106 110 116 122 119 106 96 92 92 95 100 106 104
114 112 107 107 104 102 101 100 100 99 98 99 99 98 97 97 99 99 100 101 101 101 101 101 100 99 98 100 103 107 113 119 126 135 117 103 100 100 100 101 105 107 106
108 105 109 109 106 104 103 102 101 101 100 100 99 99 99 100 100 100 100 100 100 101 102 102 101 100 100 102 106 109 117 125 126 115 98 93 94 108 107 107 109 108 107
109 109 110 110 107 105 104 103 102 102 102 101 100 100 100 101 101 101 100 101 101 102 103 102 102 102 103 104 106 106 111 120 123 108 102 104 103 111 112 110 108 108 108
110 113 114 112 107 105 105 105 105 105 105 105 103 102 102 102 103 103 103 102 103 103 104 105 106 107 108 108 104 91 42 14 126 110 106 102 106 113 114 113 109 107 109
113 112 114 113 111 107 106 107 108 108 109 108 108 108 107 105 105 107 107 106 106 105 107 109 110 111 113 114 104 46 354 340 111 113 110 107 117 117 117 115 112 112 111
117 121 125 123 117 112 110 112 112 113 113 113 114 115 115 113 112 110 110 110 109 109 112 114 116 119 122 125 127 346 342 1 92 111 113 114 123 122 122 120 121 119 118
121 127 133 133 133 131 121 118 119 119 121 123 125 126 124 122 121 122 117 114 116 116 118 122 125 129 136 151 185 259 305 323 116 106 108 122 129 128 126 125 125 125 123
116 122 132 134 144 140 133 131 133 132 134 138 139 141 145 145 136 136 117 125 126 130 135 141 146 150 160 186 217 250 282 235 104 103 108 129 134 131 131 130 131 131 131
129 128 132 134 139 138 133 139 149 148 153 163 144 160 177 147 132 123 130 138 145 151 158 169 172 177 195 192 200 217 252 155 109 109 121 137 137 136 137 137 138 137 137
138 137 132 124 130 130 129 144 140 134 145 144 137 154 155 138 138 133 150 153 167 177 186 176 189 202 192 194 180 177 218 112 109 109 132 143 142 143 144 144 144 145 146
146 141 133 119 118 107 116 124 140 142 147 135 137 166 140 134 133 135 156 170 168 175 175 177 183 157 167 180 132 110 112 105 107 112 140 149 149 151 152 153 154 156 157
145 143 127 124 114 98 91 135 139 142 141 129 145 149 146 143 120 109 94 111 173 159 162 168 136 131 129 85 84 94 82 94 121 129 139 159 158 161 162 165 169 169 168
151 144 135 136 129 125 126 102 114 125 121 133 143 139 140 112 107 113 141 209 266 123 123 140 137 122 123 100 78 113 120 117 114 129 142 162 168 170 173 176 179 180 180
155 148 146 150 143 148 161 180 153 146 147 138 129 137 148 135 132 161 172 188 186 152 139 143 140 127 158 169 144 143 134 129 133 135 147 159 169 180 183 185 186 189 190
158 152 160 163 152 157 168 187 157 154 134 134 138 143 150 138 149 173 207 177 149 144 153 158 157 151 139 130 145 182 141 149 159 165 158 171 173 175 187 194 192 193 195
157 153 163 159 155 163 168 176 182 139 134 147 143 142 155 162 166 173 236 64 160 168 163 171 119 164 148 153 192 198 190 173 185 189 175 178 173 169 175 190 194 195 199
156 155 162 163 159 163 165 172 193 166 160 172 148 147 154 171 178 180 180 189 235 160 96 85 118 178 175 222 249 206 221 195 193 187 189 176 176 185 180 177 184 199 205
160 161 167 173 168 170 173 179 185 181 180 180 181 169 168 186 181 186 205 176 207 161 173 183 161 213 217 196 194 286 277 224 190 190 189 186 187 189 175 171 184 187 196
167 168 172 177 176 183 179 179 182 177 184 187 187 165 180 186 183 193 189 193 193 179 201 209 174 217 241 187 180 179 293 308 262 209 186 200 188 177 183 184 186 186 192
174 176 182 182 180 188 179 177 184 171 202 190 168 172 186 187 195 207 185 196 188 194 196 213 206 205 237 247 189 177 184 229 282 251 218 198 180 186 196 187 191 185 193
177 179 179 180 181 185 185 188 188 188 196 199 186 183 185 194 204 203 199 197 201 209 198 215 203 203 213 239 231 214 212 205 202 242 265 199 195 203 207 206 192 186 192
178 178 179 178 181 183 192 195 196 198 192 192 193 187 185 198 213 213 199 197 203 213 210 216 198 205 211 228 229 221 220 223 223 213 228 220 214 206 204 207 196 187 190
179 178 177 177 183 185 192 197 199 200 192 196 199 191 191 199 211 216 204 195 199 211 212 209 216 215 216 230 240 242 224 220 223 219 222 218 218 216 205 200 190 191 192